Regional Weather Roundup
Issued by NWS

Home | Current Version | Previous Version | Graphics & Text | Print | Product List | Glossary On
Versions: 1 2 3 4 5 6 7 8 9 10 11 12 13 14 15 16 17 18 19 20 21 22 23 24 25 26 27 28 29 30 31 32 33 34 35 36 37 38 39 40 41 42 43 44 45 46 47 48 49 50
000
ASUS43 KMKX 300200
RWRWI

WISCONSIN REGIONAL WEATHER ROUNDUP
NATIONAL WEATHER SERVICE MILWAUKEE/SULLIVAN WI
900 PM CDT FRI JUL 29 2016

NOTE: "FAIR" INDICATES FEW OR NO CLOUDS BELOW 12,000 FEET WITH NO
SIGNIFICANT WEATHER AND/OR OBSTRUCTIONS TO VISIBILITY.

WIZ001-002-006>008-014>016-023>028-300300-
NORTHWEST WISCONSIN

CITY           SKY/WX    TMP DP  RH WIND       PRES   REMARKS
SUPERIOR ARPT  CLEAR     61  58  88 NE6       30.05S
ASHLAND        CLEAR     61  56  83 CALM      30.08R
HAYWARD        CLEAR     62  55  77 NE6       30.06S
SIREN          CLEAR     68  57  68 NE5       30.04S
CUMBERLAND     CLEAR     68  54  60 N3        30.03S
RICE LAKE      CLEAR     64  60  85 CALM      30.04S
CHETEK         CLEAR     70  59  68 CALM      30.03S
LADYSMITH      MOCLDY    69  60  75 N6        30.05S
EAU CLAIRE     NOT AVBL
MENOMONIE      PTCLDY    71  56  57 CALM      30.03R
NEW RICHMOND   CLEAR     69  56  64 CALM      30.04R
OSCEOLA        CLEAR     69  56  63 CALM      30.05S
$$

WIZ003>005-009-010-017-018-300300-
NORTH CENTRAL WISCONSIN

CITY           SKY/WX    TMP DP  RH WIND       PRES   REMARKS
MANITOWISH WTR CLEAR     67  60  77 N5        30.06S
ARBOR VITAE    MOCLDY    68  61  78 CALM      30.06S
WOODRUFF       MOCLDY    68  61  78 CALM      30.06S
RHINELANDER    PTCLDY    68  59  73 CALM      30.08R
EAGLE RIVER    PTCLDY    63  57  79 CALM      30.06S
LAND O LAKES   MOCLDY    69  58  66 NE7       30.08R
PHILLIPS       PTCLDY    67  60  77 N6        30.04S
TOMAHAWK       PTCLDY    62  59  88 CALM      30.07R
MEDFORD        CLEAR     66  61  84 SE3       30.05S
MERRILL        CLEAR     67  61  79 E3        30.07R
$$

WIZ029-030-035-036-043>047-300300-
CENTRAL WISCONSIN

CITY           SKY/WX    TMP DP  RH WIND       PRES   REMARKS
WAUSAU         MOCLDY    66  61  84 E5        30.04R
MOSINEE        CLEAR     68  64  88 E5        30.06R
MARSHFIELD     CLEAR     67  61  81 CALM      30.04R
STEVENS POINT  CLOUDY    67  61  83 E3        30.05R
WAUPACA        CLOUDY    71  61  69 NE3       30.03S
WAUTOMA        CLOUDY    68  64  87 NE5       30.03R
WISC RAPIDS    CLOUDY    69  62  78 E3        30.04R
CAMP DOUGLAS   NOT AVBL
$$

WIZ011>013-019>022-031-037>040-048>050-300300-
NORTHEAST WISCONSIN

CITY           SKY/WX    TMP DP  RH WIND       PRES   REMARKS
ANTIGO         CLEAR     63  58  84 CALM      30.07S
SHAWANO        CLOUDY    70  58  66 E3        30.04S
OCONTO         CLOUDY    69  57  66 NE3       30.03S
STURGEON BAY   CLEAR     67  56  67 CALM      30.05R
GREEN BAY      CLOUDY    68  58  70 E6        30.03S
MANITOWOC      NOT AVBL
APPLETON       MOCLDY    72  50  46 E8        30.02R
CLINTONVILLE   CLOUDY    68  55  64 CALM      30.03S
OSHKOSH        CLOUDY    71  56  58 NE8       30.02S
$$

WIZ032>034-041-042-053>061-300300-
SOUTHWEST WISCONSIN

CITY           SKY/WX    TMP DP  RH WIND       PRES   REMARKS
LA CROSSE      CLOUDY    71  66  84 E3        30.01R
SPARTA         CLOUDY    69  65  86 CALM      30.03R
VIROQUA        CLOUDY    67  65  91 E3        30.03S
BOSCOBEL       MOCLDY    68  66  93 CALM      30.01R
PRAIRIE DU CHI PTCLDY    69  64  84 CALM      29.99S
PLATTEVILLE    CLOUDY    69  67  96 NE5       30.00S
$$

WIZ056-057-062-063-064-067-068-300300-
SOUTH CENTRAL WISCONSIN

CITY           SKY/WX    TMP DP  RH WIND       PRES   REMARKS
REEDSBURG      CLOUDY    69  66  92 NE3       30.02R
BARABOO/DELLS  CLOUDY    67  64  90 NE3       30.02S
LONE ROCK      NOT AVBL
MINERAL POINT  PTCLDY    70  68  94 NE5       30.00F
MADISON        MOCLDY    70  63  78 NE7       30.00R
MIDDLETON      CLOUDY    70  65  84 NE3       30.01S
WATERTOWN      CLOUDY    69  62  80 NE8       30.00S
MONROE         MOCLDY    68  64  88 NE5       29.99S
JANESVILLE     CLOUDY    72  64  78 E5        29.98S
$$

WIZ051-052-058>065-066-070>072-300300-
SOUTHEAST WISCONSIN

CITY           SKY/WX    TMP DP  RH WIND       PRES   REMARKS
MILWAUKEE      CLOUDY    70  65  84 NE12      29.99S
WAUKESHA       PTCLDY    66  61  82 NE10      30.01S
MILWAUKEE/TIMM PTCLDY    70  61  73 NE9       30.01R
RACINE         CLOUDY    68  65  90 N10       29.99S
BURLINGTON     CLOUDY    69  63  80 NE6       29.98S
KENOSHA        CLOUDY    70  66  87 NE8       29.98R
FOND DU LAC    CLOUDY    70  59  68 NE8       30.03R
SHEBOYGAN      CLOUDY    69  57  65 NE12      30.02R
WEST BEND      CLOUDY    68  59  73 NE5       30.01S
JUNEAU         CLOUDY    68  60  76 NE8       30.03R
$$

LSZ147-162-300300-
LAKE SUPERIOR

STATION/POSITION TIME  TEMP    WIND        PRES    WAVE
                       AIR SEA DIR/SP/G            HT/PER
                 (UTC) (F)     (DEG/KT/KT) (MB)    (FT/S)
W MID LAKE BUOY  0050   65 62  110/  8/ 10 1017.6F   0
DEVILS ISLAND    0100   66      90/  7/  7 1018.1R
PORT WING        0100   70      90/  3/  4 1017.9
SAXON HARBOR     0140   67      80/  2/  7 1017.6F
$$

LMZ867-665-643>646-300300-
LAKE MICHIGAN

STATION/POSITION TIME  TEMP    WIND        PRES    WAVE
                       AIR SEA DIR/SP/G            HT/PER
                 (UTC) (F)     (DEG/KT/KT) (MB)    (FT/S)
CHAMBERS ISLAND  0100   72      40/  7/  8 1017.3R
S GREEN BAY BUOY 0100   70 70   70/ 10/ 12 1016.5
N MID LAKE BUOY  0050   71 70   40/  8/ 10 1016.5S   1/ 3
NORTHPORT PIER   0100   71      50/  6/  8 1016.9S
SISTER BAY       0121   69      CALM  /  3   N/A
ALGOMA LAKESHORE 0113           30/  9/ 13   N/A
KEWAUNEE LAKESHO 0100                      1016.3
SHEBOYGAN LAKESH 0100   65     350/ 12/ 12 1016.3R
PORT WASHINGTON  0140   70     360/  5/ 11 1016.6R
ATWATER BUOY     0100   64 62  360/  8/ 10 1017.2R
MILWAUKEE LAKESH 0110   69      10/ 12/ 13   N/A
S MID LAKE BUOY  0050   71 74  170/  2/  4 1014.3R   2/ 6
KENOSHA   LAKESH 0100   70      40/ 13/ 15 1014.2F
$$

TC  - TEMPERATURE IN CELSIUS
VSB - VISIBILITY IN STATUTE MILES
WCI - WIND CHILL INDEX
HX  - HEAT INDEX




USA.gov is the U.S. government's official web portal to all federal, state and local government web resources and services.